Overview Statistics Trail Chart Weather Telemetry Raw packets
 

This is the latest recevied weather packets stored in our database for station/object W5MAI. If no packets are shown the sender has not sent any weather packets the latest 10 day(s).

<< 19 20 21 22 23 24 25 >>
Time Temp. Humidity Pressure Rain* Wind** Luminosity Snow
1788324249 28.89° C 67% 1017 hPa 0 mm - 0 W/m² -
1788323030 28.89° C 65% 1016.9 hPa 0 mm - 0 W/m² -
1788322454 29.44° C 64% 1016.8 hPa 0 mm - 0 W/m² -
1788321813 30° C 63% 1016.7 hPa 0 mm - 0 W/m² -
1788321233 30° C 62% 1016.8 hPa 0 mm - 0 W/m² -
1788320654 30° C 60% 1016.8 hPa 0 mm - 0 W/m² -
1788320018 30° C 59% 1016.7 hPa 0 mm - 0 W/m² -
1788319435 30.56° C 59% 1016.5 hPa 0 mm - 0 W/m² -
1788318850 30.56° C 59% 1016.3 hPa 0 mm - 0 W/m² -
1788318209 30.56° C 59% 1016.2 hPa 0 mm - 0 W/m² -
1788317030 30.56° C 60% 1015.9 hPa 0 mm - 0 W/m² -
1788316462 30.56° C 60% 1015.8 hPa 0 mm - 0 W/m² -
1788315830 30° C 60% 1015.5 hPa 0 mm - 0 W/m² -
1788315255 30° C 61% 1015.4 hPa 0 mm - 0 W/m² -
1788314621 30° C 62% 1015.2 hPa 0 mm - 0 W/m² -
1788314057 30° C 62% 1015.1 hPa 0 mm - 0 W/m² -
1788313416 30.56° C 60% 1015 hPa 0 mm - 0 W/m² -
1788312811 31.11° C 59% 1015 hPa 0 mm - 0 W/m² -
1788312221 31.67° C 56% 1015 hPa 0 mm - 0 W/m² -
1788311614 31.67° C 54% 1014.9 hPa 0 mm - 0 W/m² -
1788311058 32.22° C 52% 1014.6 hPa 0 mm - 0 W/m² -
1788310406 33.33° C 51% 1014.5 hPa 0 mm - 5 W/m² -
1788309825 33.89° C 48% 1014.5 hPa 0 mm - 11 W/m² -
1788309234 33.89° C 46% 1014.6 hPa 0 mm - 18 W/m² -
1788308627 34.44° C 45% 1014.7 hPa 0 mm - 40 W/m² -

* Rain latest hour (hover to see other rain measurements)
** Current wind speed in m/s (hover to see current wind gust speed)